| time (UTC) | temp F | wind direction | speed knots | gust knots | rain 1hr in | rain 24hr in | rain mn in | humidity % | barometer mb |
| 20260506045040 | 44 | 346 | 11.3 | 17.4 | 0.03 | 0.03 | 0.03 | 73 | 1016.0 |
| 20260506044619 | 44 | 324 | 10.4 | 14.8 | 0.03 | 0.03 | 0.03 | 74 | 1015.8 |
| 20260506044038 | 44 | 333 | 6.1 | 10.4 | 0.03 | 0.03 | 0.03 | 74 | 1015.9 |
| 20260506043538 | 44 | 317 | 6.1 | 11.3 | 0.03 | 0.03 | 0.03 | 74 | 1015.9 |
| 20260506043046 | 44 | 323 | 7.8 | 19.1 | 0.03 | 0.03 | 0.03 | 76 | 1015.8 |
| 20260506042539 | 44 | 334 | 11.3 | 19.1 | 0.03 | 0.03 | 0.03 | 76 | 1015.7 |
| 20260506042039 | 44 | 339 | 12.2 | 16.5 | 0.03 | 0.03 | 0.03 | 76 | 1015.8 |
| 20260506041549 | 44 | 331 | 11.3 | 17.4 | 0.03 | 0.03 | 0.03 | 77 | 1015.7 |
| 20260506041039 | 44 | 350 | 12.2 | 17.4 | 0.02 | 0.02 | 0.02 | 76 | 1015.4 |
| 20260506040539 | 44 | 326 | 13.0 | 17.4 | 0.01 | 0.01 | 0.01 | 77 | 1015.6 |
| 20260506040046 | 44 | 334 | 13.0 | 20.9 | 0.01 | 0.01 | 0.01 | 75 | 1015.5 |
| 20260506035536 | 45 | 339 | 14.8 | 21.7 | 0.00 | 0.00 | 0.00 | 73 | 1015.5 |
| 20260506035036 | 46 | 342 | 16.5 | 21.7 | 0.00 | 0.00 | 0.00 | 69 | 1015.2 |
| 20260506034543 | 46 | 5 | 13.0 | 21.7 | 0.00 | 0.00 | 0.00 | 69 | 1014.9 |
| 20260506034036 | 46 | 342 | 16.5 | 21.7 | 0.00 | 0.00 | 0.00 | 68 | 1014.9 |
| 20260506033537 | 46 | 350 | 15.6 | 24.3 | 0.00 | 0.00 | 0.00 | 68 | 1014.7 |
| 20260506033047 | 46 | 317 | 17.4 | 24.3 | 0.00 | 0.00 | 0.00 | 68 | 1014.2 |
| 20260506032540 | 46 | 346 | 15.6 | 25.2 | 0.00 | 0.00 | 0.00 | 68 | 1014.7 |
| 20260506032042 | 46 | 5 | 18.2 | 25.2 | 0.00 | 0.00 | 0.00 | 68 | 1014.5 |
| 20260506031543 | 46 | 339 | 17.4 | 21.7 | 0.00 | 0.00 | 0.00 | 68 | 1014.5 |
| 20260506031041 | 47 | 360 | 16.5 | 25.2 | 0.00 | 0.00 | 0.00 | 67 | 1014.4 |
| 20260506030540 | 47 | 335 | 16.5 | 25.2 | 0.00 | 0.00 | 0.00 | 65 | 1014.3 |
| 20260506030042 | 48 | 360 | 17.4 | 21.7 | 0.00 | 0.00 | 0.00 | 64 | 1014.2 |
| 20260506025539 | 48 | 348 | 13.9 | 20.9 | 0.00 | 0.00 | 0.00 | 62 | 1014.2 |
| 20260506025036 | 49 | 342 | 14.8 | 20.9 | 0.00 | 0.00 | 0.00 | 61 | 1014.3 |
| 20260506024547 | 49 | 350 | 14.8 | 20.9 | 0.00 | 0.00 | 0.00 | 61 | 1014.1 |
| 20260506024036 | 49 | 323 | 11.3 | 19.1 | 0.00 | 0.00 | 0.00 | 62 | 1014.3 |
| 20260506023538 | 49 | 331 | 10.4 | 15.6 | 0.00 | 0.00 | 0.00 | 62 | 1014.0 |
| 20260506023057 | 48 | 279 | 5.2 | 7.8 | 0.00 | 0.00 | 0.00 | 62 | 1013.7 |
| 20260506022536 | 48 | 265 | 5.2 | 7.0 | 0.00 | 0.00 | 0.00 | 61 | 1013.6 |
| 20260506022037 | 48 | 272 | 3.5 | 6.1 | 0.00 | 0.00 | 0.00 | 60 | 1013.6 |
| 20260506021555 | 49 | 280 | 3.5 | 6.1 | 0.00 | 0.00 | 0.00 | 60 | 1013.6 |
| 20260506021038 | 49 | 277 | 3.5 | 5.2 | 0.00 | 0.00 | 0.00 | 59 | 1013.6 |
| 20260506020539 | 49 | 290 | 3.5 | 6.1 | 0.00 | 0.00 | 0.00 | 59 | 1013.6 |
| 20260506020043 | 50 | 307 | 3.5 | 7.0 | 0.00 | 0.00 | 0.00 | 59 | 1013.6 |
| 20260506015537 | 50 | 294 | 4.3 | 8.7 | 0.00 | 0.00 | 0.00 | 58 | 1013.6 |
| 20260506015039 | 51 | 284 | 5.2 | 9.6 | 0.00 | 0.00 | 0.00 | 57 | 1013.6 |
| 20260506014545 | 51 | 286 | 6.1 | 11.3 | 0.00 | 0.00 | 0.00 | 56 | 1013.4 |
| 20260506014040 | 51 | 288 | 7.0 | 13.0 | 0.00 | 0.00 | 0.00 | 56 | 1013.3 |
| 20260506013536 | 51 | 306 | 8.7 | 13.9 | 0.00 | 0.00 | 0.00 | 55 | 1013.4 |
| 20260506013040 | 51 | 292 | 8.7 | 16.5 | 0.00 | 0.00 | 0.00 | 54 | 1013.3 |
| 20260506012538 | 52 | 288 | 10.4 | 16.5 | 0.00 | 0.00 | 0.00 | 53 | 1013.2 |
| 20260506012039 | 53 | 300 | 13.0 | 19.1 | 0.00 | 0.00 | 0.00 | 51 | 1013.0 |
| 20260506011537 | 53 | 290 | 11.3 | 19.1 | 0.00 | 0.00 | 0.00 | 51 | 1013.2 |
| 20260506011040 | 53 | 306 | 13.0 | 18.2 | 0.00 | 0.00 | 0.00 | 48 | 1013.4 |
| 20260506010538 | 53 | 300 | 10.4 | 17.4 | 0.00 | 0.00 | 0.00 | 48 | 1013.0 |
| 20260506010055 | 53 | 281 | 8.7 | 12.2 | 0.00 | 0.00 | 0.00 | 51 | 1012.8 |
| 20260506005537 | 54 | 273 | 8.7 | 12.2 | 0.00 | 0.00 | 0.00 | 51 | 1012.8 |
| 20260506005041 | 54 | 276 | 8.7 | 12.2 | 0.00 | 0.00 | 0.00 | 50 | 1012.6 |
| 20260506004552 | 54 | 278 | 7.0 | 13.9 | 0.00 | 0.00 | 0.00 | 50 | 1012.8 |
| 20260506004038 | 54 | 276 | 9.6 | 16.5 | 0.00 | 0.00 | 0.00 | 49 | 1012.9 |
| 20260506003538 | 55 | 277 | 10.4 | 16.5 | 0.00 | 0.00 | 0.00 | 47 | 1012.9 |
| 20260506003050 | 55 | 258 | 10.4 | 17.4 | 0.00 | 0.00 | 0.00 | 47 | 1012.9 |
| 20260506002538 | 56 | 282 | 10.4 | 17.4 | 0.00 | 0.00 | 0.00 | 46 | 1012.5 |
| 20260506002038 | 56 | 276 | 12.2 | 20.0 | 0.00 | 0.00 | 0.00 | 45 | 1012.7 |
| 20260506001553 | 57 | 281 | 12.2 | 20.0 | 0.00 | 0.00 | 0.00 | 44 | 1012.8 |
| 20260506001038 | 58 | 277 | 11.3 | 18.2 | 0.00 | 0.00 | 0.00 | 42 | 1012.8 |
| 20260506000539 | 58 | 269 | 13.0 | 18.2 | 0.00 | 0.00 | 0.00 | 41 | 1012.8 |
| 20260506000052 | 58 | 281 | 10.4 | 18.2 | 0.00 | 0.00 | 0.00 | 43 | 1012.7 |
| 20260505235541 | 58 | 262 | 13.0 | 19.1 | 0.00 | 0.00 | 0.00 | 43 | 1012.8 |
| 20260505235038 | 58 | 267 | 13.0 | 19.1 | 0.00 | 0.00 | 0.00 | 42 | 1012.7 |
| 20260505234602 | 58 | 253 | 13.9 | 19.1 | 0.00 | 0.00 | 0.00 | 41 | 1012.8 |
| 20260505234042 | 58 | 235 | 13.0 | 17.4 | 0.00 | 0.00 | 0.00 | 41 | 1012.7 |
| 20260505233541 | 58 | 245 | 8.7 | 15.6 | 0.00 | 0.00 | 0.00 | 43 | 1012.8 |
| 20260505233047 | 57 | 257 | 8.7 | 13.9 | 0.00 | 0.00 | 0.00 | 47 | 1012.9 |
| 20260505232538 | 58 | 257 | 11.3 | 13.0 | 0.00 | 0.00 | 0.00 | 46 | 1012.9 |
| 20260505232040 | 58 | 283 | 9.6 | 14.8 | 0.00 | 0.00 | 0.00 | 44 | 1013.0 |
| 20260505231549 | 57 | 292 | 11.3 | 14.8 | 0.00 | 0.00 | 0.00 | 44 | 1013.0 |
| 20260505231038 | 56 | 263 | 8.7 | 14.8 | 0.00 | 0.00 | 0.00 | 50 | 1012.9 |
| 20260505230538 | 56 | 247 | 9.6 | 14.8 | 0.00 | 0.00 | 0.00 | 49 | 1012.8 |
| 20260505230047 | 57 | 246 | 9.6 | 13.0 | 0.00 | 0.00 | 0.00 | 49 | 1012.8 |
| 20260505225538 | 56 | 265 | 8.7 | 13.0 | 0.00 | 0.00 | 0.00 | 51 | 1012.7 |
| 20260505225039 | 56 | 268 | 8.7 | 14.8 | 0.00 | 0.00 | 0.00 | 51 | 1012.9 |
| 20260505224548 | 56 | 275 | 10.4 | 17.4 | 0.00 | 0.00 | 0.00 | 51 | 1012.8 |
| 20260505224040 | 55 | 271 | 12.2 | 20.9 | 0.00 | 0.00 | 0.00 | 52 | 1013.0 |
| 20260505223537 | 55 | 278 | 14.8 | 27.8 | 0.00 | 0.00 | 0.00 | 52 | 1013.3 |
| 20260505223044 | 56 | 277 | 18.2 | 27.8 | 0.00 | 0.00 | 0.00 | 49 | 1013.4 |
| 20260505222545 | 57 | 268 | 18.2 | 25.2 | 0.00 | 0.00 | 0.00 | 48 | 1013.4 |
| 20260505222038 | 57 | 265 | 13.9 | 21.7 | 0.00 | 0.00 | 0.00 | 49 | 1013.4 |
| 20260505221547 | 57 | 292 | 15.6 | 21.7 | 0.00 | 0.00 | 0.00 | 47 | 1013.3 |
| 20260505221038 | 57 | 276 | 14.8 | 21.7 | 0.00 | 0.00 | 0.00 | 46 | 1013.5 |
| 20260505220542 | 57 | 276 | 13.0 | 19.1 | 0.00 | 0.00 | 0.00 | 48 | 1013.4 |
| 20260505220051 | 56 | 248 | 11.3 | 18.2 | 0.00 | 0.00 | 0.00 | 51 | 1013.4 |
| 20260505215538 | 56 | 304 | 7.0 | 17.4 | 0.00 | 0.00 | 0.00 | 51 | 1013.3 |
| 20260505215042 | 56 | 282 | 7.0 | 11.3 | 0.00 | 0.00 | 0.00 | 52 | 1013.4 |
| 20260505214604 | 56 | 305 | 6.1 | 10.4 | 0.00 | 0.00 | 0.00 | 52 | 1013.3 |
| 20260505214038 | 55 | 288 | 2.6 | 9.6 | 0.00 | 0.00 | 0.00 | 53 | 1013.4 |
| 20260505213541 | 55 | 321 | 4.3 | 11.3 | 0.00 | 0.00 | 0.00 | 54 | 1013.4 |
| 20260505213056 | 56 | 279 | 7.0 | 11.3 | 0.00 | 0.00 | 0.00 | 53 | 1013.6 |
| 20260505212542 | 56 | 291 | 4.3 | 13.9 | 0.00 | 0.00 | 0.00 | 54 | 1013.6 |
| 20260505212042 | 56 | 280 | 7.8 | 16.5 | 0.00 | 0.00 | 0.00 | 54 | 1013.6 |
| 20260505211549 | 56 | 300 | 9.6 | 17.4 | 0.00 | 0.00 | 0.00 | 53 | 1013.7 |
| 20260505211038 | 56 | 247 | 10.4 | 17.4 | 0.00 | 0.00 | 0.00 | 53 | 1013.8 |
| 20260505210540 | 55 | 217 | 7.8 | 11.3 | 0.00 | 0.00 | 0.00 | 56 | 1013.7 |
| 20260505210057 | 55 | 238 | 6.1 | 12.2 | 0.00 | 0.00 | 0.00 | 55 | 1013.7 |
| 20260505205542 | 56 | 276 | 7.8 | 12.2 | 0.00 | 0.00 | 0.00 | 55 | 1013.8 |
| 20260505205040 | 55 | 302 | 6.1 | 12.2 | 0.00 | 0.00 | 0.00 | 56 | 1013.9 |
| 20260505204558 | 55 | 284 | 7.0 | 12.2 | 0.00 | 0.00 | 0.00 | 56 | 1014.1 |
| 20260505204038 | 55 | 292 | 8.7 | 12.2 | 0.00 | 0.00 | 0.00 | 55 | 1014.2 |
| 20260505203538 | 56 | 268 | 7.8 | 12.2 | 0.00 | 0.00 | 0.00 | 54 | 1014.2 |
| 20260505203052 | 56 | 252 | 8.7 | 14.8 | 0.00 | 0.00 | 0.00 | 55 | 1014.3 |
| 20260505202537 | 55 | 262 | 7.8 | 14.8 | 0.00 | 0.00 | 0.00 | 55 | 1014.3 |
| 20260505202038 | 56 | 290 | 9.6 | 13.9 | 0.00 | 0.00 | 0.00 | 54 | 1014.2 |
| 20260505201554 | 56 | 290 | 10.4 | 17.4 | 0.00 | 0.00 | 0.00 | 53 | 1014.1 |
| 20260505201042 | 57 | 294 | 11.3 | 17.4 | 0.00 | 0.00 | 0.00 | 54 | 1014.1 |
| 20260505200538 | 57 | 295 | 10.4 | 18.2 | 0.00 | 0.00 | 0.00 | 54 | 1014.1 |
| 20260505200058 | 56 | 250 | 11.3 | 18.2 | 0.00 | 0.00 | 0.00 | 53 | 1014.1 |
| 20260505195538 | 57 | 271 | 11.3 | 18.2 | 0.00 | 0.00 | 0.00 | 54 | 1014.1 |
| 20260505195037 | 56 | 246 | 11.3 | 16.5 | 0.00 | 0.00 | 0.00 | 58 | 1014.1 |
| 20260505194554 | 55 | 287 | 9.6 | 16.5 | 0.00 | 0.00 | 0.00 | 59 | 1014.1 |
| 20260505194042 | 56 | 292 | 8.7 | 16.5 | 0.00 | 0.00 | 0.00 | 60 | 1014.3 |
| 20260505193539 | 56 | 302 | 8.7 | 13.9 | 0.00 | 0.00 | 0.00 | 66 | 1014.3 |
| 20260505193053 | 53 | 301 | 10.4 | 14.8 | 0.00 | 0.00 | 0.00 | 70 | 1014.3 |
| 20260505192538 | 52 | 275 | 12.2 | 19.1 | 0.00 | 0.00 | 0.00 | 72 | 1014.3 |
| 20260505192038 | 50 | 257 | 12.2 | 20.0 | 0.00 | 0.00 | 0.00 | 75 | 1014.3 |
| 20260505191556 | 52 | 261 | 15.6 | 23.5 | 0.00 | 0.00 | 0.00 | 72 | 1014.4 |
| 20260505191038 | 53 | 263 | 14.8 | 23.5 | 0.00 | 0.00 | 0.00 | 63 | 1014.2 |
| 20260505190538 | 55 | 270 | 11.3 | 18.2 | 0.00 | 0.00 | 0.00 | 55 | 1014.2 |
| 20260505190049 | 57 | 280 | 13.0 | 19.1 | 0.00 | 0.00 | 0.00 | 53 | 1014.1 |
| 20260505185539 | 57 | 250 | 13.9 | 19.1 | 0.00 | 0.00 | 0.00 | 49 | 1014.1 |
| 20260505185038 | 57 | 276 | 9.6 | 14.8 | 0.00 | 0.00 | 0.00 | 49 | 1014.1 |
| 20260505184551 | 58 | 238 | 9.6 | 14.8 | 0.00 | 0.00 | 0.00 | 48 | 1014.0 |
| 20260505184042 | 58 | 228 | 11.3 | 14.8 | 0.00 | 0.00 | 0.00 | 47 | 1014.1 |
| 20260505183538 | 58 | 213 | 8.7 | 11.3 | 0.00 | 0.00 | 0.00 | 49 | 1014.0 |
| 20260505183055 | 56 | 269 | 7.8 | 12.2 | 0.00 | 0.00 | 0.00 | 51 | 1014.2 |
| 20260505182537 | 56 | 192 | 7.0 | 12.2 | 0.00 | 0.00 | 0.00 | 52 | 1014.3 |
| 20260505182040 | 56 | 225 | 7.8 | 12.2 | 0.00 | 0.00 | 0.00 | 51 | 1014.3 |
| 20260505181549 | 54 | 201 | 1.7 | 7.0 | 0.00 | 0.00 | 0.00 | 52 | 1014.5 |
| 20260505181045 | 54 | 193 | 1.7 | 7.0 | 0.00 | 0.00 | 0.00 | 52 | 1014.5 |
| 20260505180541 | 53 | 207 | 2.6 | 8.7 | 0.00 | 0.00 | 0.00 | 51 | 1014.6 |
| 20260505180105 | 54 | 0 | 1.7 | 8.7 | 0.00 | 0.00 | 0.00 | 52 | 1014.5 |
| 20260505175538 | 54 | 256 | 3.5 | 6.1 | 0.00 | 0.00 | 0.00 | 51 | 1014.5 |
| 20260505175038 | 55 | 311 | 3.5 | 7.0 | 0.00 | 0.00 | 0.00 | 50 | 1014.7 |
| 20260505174601 | 54 | 0 | 1.7 | 7.0 | 0.00 | 0.00 | 0.00 | 51 | 1014.9 |
| 20260505174038 | 54 | 250 | 3.5 | 10.4 | 0.00 | 0.00 | 0.00 | 50 | 1015.1 |
| 20260505173538 | 55 | 240 | 3.5 | 10.4 | 0.00 | 0.00 | 0.00 | 48 | 1015.1 |
| 20260505173049 | 56 | 268 | 3.5 | 12.2 | 0.00 | 0.00 | 0.00 | 49 | 1015.0 |
| 20260505172537 | 55 | 223 | 7.8 | 12.2 | 0.00 | 0.00 | 0.00 | 49 | 1015.1 |
| 20260505172038 | 55 | 242 | 3.5 | 7.8 | 0.00 | 0.00 | 0.00 | 50 | 1015.3 |
| 20260505171547 | 54 | 221 | 3.5 | 10.4 | 0.00 | 0.00 | 0.00 | 51 | 1015.1 |
| 20260505171041 | 54 | 216 | 6.1 | 10.4 | 0.00 | 0.00 | 0.00 | 50 | 1014.9 |
| 20260505170538 | 54 | 192 | 3.5 | 7.0 | 0.00 | 0.00 | 0.00 | 51 | 1014.9 |
| 20260505170053 | 53 | 72 | 1.7 | 8.7 | 0.00 | 0.00 | 0.00 | 52 | 1015.0 |
| 20260505165538 | 54 | 207 | 3.5 | 8.7 | 0.00 | 0.00 | 0.00 | 50 | 1014.9 |
| 20260505165041 | 53 | 299 | 1.7 | 7.0 | 0.00 | 0.00 | 0.00 | 52 | 1014.8 |
| 20260505164550 | 53 | 315 | 2.6 | 7.8 | 0.00 | 0.00 | 0.00 | 51 | 1014.9 |
| 20260505164038 | 53 | 335 | 3.5 | 7.8 | 0.00 | 0.00 | 0.00 | 51 | 1015.1 |
| 20260505163538 | 52 | 345 | 1.7 | 7.0 | 0.00 | 0.00 | 0.00 | 53 | 1015.3 |
| 20260505163053 | 52 | 309 | 3.5 | 12.2 | 0.00 | 0.00 | 0.00 | 52 | 1015.3 |
| 20260505162538 | 52 | 307 | 5.2 | 12.2 | 0.00 | 0.00 | 0.00 | 52 | 1015.4 |
| 20260505162038 | 52 | 319 | 3.5 | 9.6 | 0.00 | 0.00 | 0.00 | 51 | 1015.4 |
| 20260505161558 | 52 | 333 | 5.2 | 11.3 | 0.00 | 0.00 | 0.00 | 51 | 1015.4 |
| 20260505161038 | 52 | 351 | 8.7 | 13.0 | 0.00 | 0.00 | 0.00 | 52 | 1015.3 |
| 20260505160538 | 52 | 343 | 8.7 | 13.0 | 0.00 | 0.00 | 0.00 | 52 | 1015.4 |
| 20260505153049 | 52 | 327 | 10.4 | 13.9 | 0.00 | 0.00 | 0.00 | 52 | 1015.2 |
| 20260505152538 | 52 | 326 | 10.4 | 13.9 | 0.00 | 0.00 | 0.00 | 52 | 1015.4 |
| 20260505152038 | 51 | 324 | 8.7 | 13.9 | 0.00 | 0.00 | 0.00 | 53 | 1015.6 |
| 20260505151548 | 51 | 326 | 7.8 | 12.2 | 0.00 | 0.00 | 0.00 | 53 | 1015.6 |
| 20260505151039 | 51 | 333 | 8.7 | 12.2 | 0.00 | 0.00 | 0.00 | 53 | 1015.6 |
| 20260505150538 | 51 | 333 | 8.7 | 12.2 | 0.00 | 0.00 | 0.00 | 53 | 1015.6 |
| 20260505140538 | 52 | 346 | 12.2 | 15.6 | 0.00 | 0.00 | 0.00 | 47 | 1015.5 |
| 20260505125040 | 51 | 282 | 8.7 | 10.4 | 0.00 | 0.00 | 0.00 | 44 | 1014.9 |
| 20260505124550 | 51 | 288 | 7.0 | 10.4 | 0.00 | 0.00 | 0.00 | 44 | 1014.9 |
| 20260505124040 | 51 | 286 | 7.0 | 9.6 | 0.00 | 0.00 | 0.00 | 43 | 1015.0 |
| 20260505123537 | 50 | 298 | 7.8 | 9.6 | 0.00 | 0.00 | 0.00 | 43 | 1015.1 |
| 20260505123100 | 50 | 275 | 6.1 | 8.7 | 0.00 | 0.00 | 0.00 | 43 | 1015.1 |
| 20260505122539 | 50 | 273 | 6.1 | 12.2 | 0.00 | 0.00 | 0.00 | 42 | 1015.2 |
| 20260505122040 | 51 | 279 | 7.0 | 12.2 | 0.00 | 0.00 | 0.00 | 41 | 1015.1 |
| 20260505121548 | 51 | 267 | 8.7 | 12.2 | 0.00 | 0.00 | 0.00 | 41 | 1014.7 |
| 20260505121039 | 52 | 255 | 8.7 | 12.2 | 0.00 | 0.00 | 0.00 | 40 | 1014.9 |
| 20260505120538 | 52 | 252 | 10.4 | 12.2 | 0.00 | 0.00 | 0.00 | 39 | 1014.7 |
| 20260505120050 | 52 | 260 | 9.6 | 12.2 | 0.00 | 0.00 | 0.00 | 39 | 1014.5 |
| 20260505115538 | 52 | 258 | 8.7 | 10.4 | 0.00 | 0.00 | 0.00 | 39 | 1014.6 |
| 20260505115039 | 52 | 253 | 8.7 | 11.3 | 0.00 | 0.00 | 0.00 | 39 | 1014.5 |
| 20260505114550 | 52 | 264 | 8.7 | 12.2 | 0.00 | 0.00 | 0.00 | 39 | 1014.5 |
| 20260505114039 | 52 | 259 | 7.8 | 12.2 | 0.00 | 0.00 | 0.00 | 39 | 1014.4 |
| 20260505113542 | 52 | 252 | 7.8 | 10.4 | 0.00 | 0.00 | 0.00 | 38 | 1014.6 |
| 20260505113106 | 52 | 258 | 7.0 | 10.4 | 0.00 | 0.00 | 0.00 | 39 | 1014.6 |
| 20260505112539 | 52 | 283 | 6.1 | 10.4 | 0.00 | 0.00 | 0.00 | 39 | 1014.5 |
| 20260505112038 | 52 | 273 | 6.1 | 10.4 | 0.00 | 0.00 | 0.00 | 39 | 1014.6 |
| 20260505111545 | 52 | 277 | 6.1 | 7.8 | 0.00 | 0.00 | 0.00 | 38 | 1014.8 |
| 20260505111039 | 53 | 261 | 5.2 | 10.4 | 0.00 | 0.00 | 0.00 | 37 | 1014.9 |
| 20260505110538 | 53 | 277 | 5.2 | 11.3 | 0.00 | 0.00 | 0.00 | 37 | 1014.9 |
| 20260505102038 | 53 | 337 | 2.6 | 4.3 | 0.00 | 0.00 | 0.00 | 36 | 1014.7 |
| 20260505101545 | 53 | 349 | 2.6 | 8.7 | 0.00 | 0.00 | 0.00 | 35 | 1014.7 |
| 20260505101038 | 54 | 10 | 4.3 | 8.7 | 0.00 | 0.00 | 0.00 | 35 | 1014.7 |
| 20260505100538 | 54 | 19 | 4.3 | 12.2 | 0.00 | 0.00 | 0.00 | 34 | 1014.7 |
| 20260505100052 | 54 | 5 | 5.2 | 12.2 | 0.00 | 0.00 | 0.00 | 33 | 1014.7 |
| 20260505095538 | 54 | 9 | 7.8 | 8.7 | 0.00 | 0.00 | 0.00 | 32 | 1014.6 |
| 20260505095037 | 54 | 13 | 6.1 | 9.6 | 0.00 | 0.00 | 0.00 | 29 | 1014.6 |
| 20260505094546 | 54 | 19 | 5.2 | 9.6 | 0.00 | 0.00 | 0.00 | 32 | 1014.5 |
| 20260505094038 | 54 | 29 | 5.2 | 8.7 | 0.00 | 0.00 | 0.00 | 33 | 1014.5 |
| 20260505093539 | 54 | 44 | 1.7 | 4.3 | 0.00 | 0.00 | 0.00 | 37 | 1014.7 |
| 20260505093046 | 54 | 61 | 0.9 | 3.5 | 0.00 | 0.00 | 0.00 | 37 | 1014.7 |
| 20260505092539 | 54 | 0 | 0.0 | 4.3 | 0.00 | 0.00 | 0.00 | 37 | 1014.8 |
| 20260505092038 | 54 | 0 | 1.7 | 4.3 | 0.00 | 0.00 | 0.00 | 36 | 1015.0 |
| 20260505091607 | 55 | 53 | 2.6 | 7.8 | 0.00 | 0.00 | 0.00 | 36 | 1015.0 |
| 20260505091038 | 55 | 5 | 1.7 | 7.8 | 0.00 | 0.00 | 0.00 | 36 | 1015.0 |
| 20260505090538 | 54 | 334 | 4.3 | 7.0 | 0.00 | 0.00 | 0.00 | 37 | 1014.9 |
| 20260505090049 | 54 | 13 | 2.6 | 7.0 | 0.00 | 0.00 | 0.00 | 37 | 1014.9 |
| 20260505085541 | 55 | 21 | 3.5 | 8.7 | 0.00 | 0.00 | 0.00 | 36 | 1014.8 |
| 20260505085038 | 55 | 32 | 6.1 | 8.7 | 0.00 | 0.00 | 0.00 | 36 | 1014.9 |
| 20260505084549 | 55 | 38 | 5.2 | 7.0 | 0.00 | 0.00 | 0.00 | 36 | 1014.9 |
| 20260505084037 | 55 | 29 | 4.3 | 7.8 | 0.00 | 0.00 | 0.00 | 35 | 1015.0 |
| 20260505083537 | 55 | 9 | 4.3 | 7.8 | 0.00 | 0.00 | 0.00 | 35 | 1015.0 |
| 20260505083051 | 56 | 19 | 3.5 | 10.4 | 0.00 | 0.00 | 0.00 | 34 | 1014.7 |
| 20260505082537 | 56 | 20 | 7.8 | 13.0 | 0.00 | 0.00 | 0.00 | 34 | 1014.9 |
| 20260505082039 | 56 | 5 | 9.6 | 13.0 | 0.00 | 0.00 | 0.00 | 34 | 1015.0 |
| 20260505081600 | 56 | 9 | 3.5 | 7.8 | 0.00 | 0.00 | 0.00 | 33 | 1014.9 |
| 20260505081038 | 57 | 349 | 0.0 | 1.7 | 0.00 | 0.00 | 0.00 | 32 | 1015.1 |
| 20260505080537 | 57 | 340 | 0.0 | 3.5 | 0.00 | 0.00 | 0.00 | 32 | 1015.3 |
| 20260505075539 | 57 | 304 | 2.6 | 9.6 | 0.00 | 0.00 | 0.00 | 32 | 1015.4 |
| 20260505075038 | 57 | 325 | 4.3 | 10.4 | 0.00 | 0.00 | 0.00 | 32 | 1015.2 |
| 20260505074548 | 57 | 329 | 5.2 | 10.4 | 0.00 | 0.00 | 0.00 | 31 | 1015.2 |
| 20260505074038 | 57 | 286 | 5.2 | 10.4 | 0.00 | 0.00 | 0.00 | 31 | 1015.4 |
| 20260505073538 | 57 | 297 | 5.2 | 15.6 | 0.00 | 0.00 | 0.00 | 32 | 1015.4 |
| 20260505073048 | 57 | 300 | 6.1 | 15.6 | 0.00 | 0.00 | 0.00 | 31 | 1015.3 |
| 20260505072538 | 57 | 280 | 7.0 | 13.0 | 0.00 | 0.00 | 0.00 | 32 | 1015.2 |
| 20260505072038 | 57 | 267 | 8.7 | 12.2 | 0.00 | 0.00 | 0.00 | 32 | 1015.2 |
| 20260505071554 | 58 | 272 | 9.6 | 12.2 | 0.00 | 0.00 | 0.00 | 31 | 1015.2 |
| 20260505071038 | 58 | 281 | 7.8 | 14.8 | 0.00 | 0.00 | 0.00 | 31 | 1015.1 |
| 20260505070538 | 58 | 300 | 10.4 | 17.4 | 0.00 | 0.00 | 0.00 | 31 | 1014.9 |
| 20260505070047 | 58 | 280 | 12.2 | 17.4 | 0.00 | 0.00 | 0.00 | 31 | 1014.8 |
| 20260505065539 | 58 | 288 | 14.8 | 17.4 | 0.00 | 0.00 | 0.00 | 31 | 1014.6 |
| 20260505065038 | 58 | 264 | 11.3 | 18.2 | 0.00 | 0.00 | 0.00 | 31 | 1014.5 |
| 20260505064542 | 58 | 259 | 13.9 | 19.1 | 0.00 | 0.00 | 0.00 | 31 | 1014.4 |
| 20260505064041 | 58 | 258 | 13.0 | 19.1 | 0.00 | 0.00 | 0.00 | 31 | 1014.3 |
| 20260505063538 | 58 | 236 | 13.0 | 17.4 | 0.00 | 0.00 | 0.00 | 31 | 1014.4 |
| 20260505063104 | 58 | 251 | 13.9 | 17.4 | 0.00 | 0.00 | 0.00 | 31 | 1014.4 |
| 20260505062538 | 57 | 261 | 13.9 | 18.2 | 0.00 | 0.00 | 0.00 | 31 | 1014.6 |
| 20260505062039 | 57 | 265 | 13.9 | 18.2 | 0.00 | 0.00 | 0.00 | 31 | 1014.7 |
| 20260505061610 | 57 | 260 | 13.9 | 16.5 | 0.00 | 0.00 | 0.00 | 31 | 1014.7 |
| 20260505061038 | 57 | 252 | 13.0 | 16.5 | 0.00 | 0.00 | 0.00 | 31 | 1014.7 |
| 20260505060539 | 57 | 266 | 13.0 | 16.5 | 0.00 | 0.00 | 0.00 | 31 | 1014.7 |
| 20260505060055 | 57 | 258 | 11.3 | 14.8 | 0.00 | 0.00 | 0.00 | 31 | 1014.8 |
| 20260505055538 | 58 | 250 | 12.2 | 14.8 | 0.00 | 0.00 | 0.00 | 30 | 1014.9 |
| 20260505055041 | 58 | 265 | 12.2 | 15.6 | 0.00 | 0.00 | 0.00 | 30 | 1015.1 |
| 20260505054548 | 57 | 262 | 13.0 | 15.6 | 0.00 | 0.00 | 0.00 | 30 | 1015.0 |
| 20260505054039 | 57 | 252 | 12.2 | 15.6 | 0.00 | 0.00 | 0.00 | 31 | 1014.9 |
| 20260505053539 | 57 | 242 | 8.7 | 11.3 | 0.00 | 0.00 | 0.00 | 31 | 1014.9 |
| 20260505053046 | 57 | 257 | 8.7 | 10.4 | 0.00 | 0.00 | 0.00 | 31 | 1015.1 |
| 20260505052538 | 57 | 260 | 7.8 | 10.4 | 0.00 | 0.00 | 0.00 | 31 | 1015.0 |
| 20260505052040 | 58 | 249 | 7.0 | 9.6 | 0.00 | 0.00 | 0.00 | 31 | 1015.1 |
| 20260505051606 | 58 | 249 | 7.0 | 9.6 | 0.00 | 0.00 | 0.00 | 30 | 1015.1 |
| 20260505051039 | 58 | 254 | 7.8 | 9.6 | 0.00 | 0.00 | 0.00 | 30 | 1015.1 |
| 20260505050538 | 58 | 261 | 7.0 | 8.7 | 0.00 | 0.00 | 0.00 | 30 | 1015.1 |